Location: Barels
(44.1500°N, 6.8667°E)
Time: 16:58:21
(UTC+00:00)

Daily predictions for brighter satellites

Satellite Brightness Start Highest point End
(mag) Time Altitude Azimuth Time Altitude Azimuth Time Altitude Azimuth
BREEZE-M DEB (TANK) 3.9 17:58:54 10° WNW 18:02:39 58° NNE 18:16:17 10° E
H-2A R/B 2.9 18:07:18 10° S 18:11:38 76° WSW 18:16:08 10° NNW
CZ-4 R/B 1.2 18:10:08 10° SSE 18:13:59 75° ENE 18:17:50 10° N
Cosmos 1733 Rocket 3.8 18:10:46 10° SSE 18:14:34 31° E 18:18:23 10° NNE
Cosmos 1340 4.3 18:12:13 10° NNE 18:14:39 16° ENE 18:17:05 10° ESE
Cosmos 1544 4.5 18:11:33 10° SSW 18:14:59 43° WNW 18:18:29 10° N
Cosmos 2278 Rocket 2.3 18:09:52 10° S 18:15:24 59° ESE 18:21:00 10° NNE
Cosmos 1709 Rocket 4.0 18:10:16 10° S 18:16:31 72° E 18:22:41 10° NNE
Genesis I 3.4 18:13:45 10° SW 18:17:37 79° NW 18:21:38 10° NNE
H-2A R/B 1.9 18:17:44 10° NNE 18:22:02 78° ESE 18:26:13 10° S
deb Kosmos-1763 4.3 18:20:46 10° NNW 18:24:13 66° WSW 18:27:37 10° S
Cosmos 1356 Rocket 3.6 18:22:40 10° S 18:26:43 49° E 18:30:51 10° NNE
Cosmos 2208 Rocket 4.0 18:22:47 10° NNW 18:27:59 64° ENE 18:33:13 10° SSE
Cosmos 841 Rocket 4.1 18:23:34 10° NNW 18:28:46 61° WSW 18:33:53 10° S
IRS-1C Rocket 4.1 18:24:26 10° SSE 18:29:42 80° ENE 18:34:59 10° NNW
DMSP B5D2-2 4.1 18:25:14 10° NNE 18:30:31 66° ESE 18:35:46 10° S
Cosmos 1814 Rocket 4.1 18:25:16 10° NNW 18:30:40 89° ENE 18:35:59 10° SSE
SeaSat 1 2.6 18:26:49 10° SE 18:31:40 60° ENE 18:36:32 10° NNW
COSMOS 2455 4.2 18:27:35 10° NNW 18:32:20 23° NE 18:36:24 12° E
Okean O Rocket 3.9 18:29:49 10° SSW 18:33:35 28° W 18:37:22 10° NW
ARGOS 4.0 18:28:28 10° S 18:33:41 54° W 18:38:57 10° NNW
ERBS 2.2 18:36:54 10° SW 18:40:09 63° SE 18:43:24 10° NE
Cosmos 1743 3.9 18:37:04 10° SSW 18:40:45 46° WNW 18:44:31 10° N
Cosmos 1707 3.7 18:38:32 10° NNE 18:41:57 28° ENE 18:44:05 17° ESE
Cosmos 1975 3.0 18:38:24 10° SSE 18:42:11 46° E 18:46:01 10° NNE
CSL-04 Debris 4.1 18:37:04 10° SSE 18:42:28 72° ENE 18:47:51 10° N
OBJECT-B 1.4 18:41:39 16° SE 18:43:46 35° ENE 18:46:44 10° N
Cosmos 1943 Rocket 3.3 18:40:01 10° SSE 18:44:01 21° E 18:48:05 10° NE
Cosmos 968 Rocket 3.5 18:39:17 10° S 18:44:23 59° ESE 18:49:34 10° NNE
USA 215 3.7 18:38:24 10° SE 18:44:52 61° SW 18:51:23 10° NW
USA 305 3.9 18:43:41 10° W 18:47:43 45° NNW 18:51:48 10° NE
Lacrosse 5 rocket 3.7 18:45:59 10° NNW 18:49:02 17° N 18:52:01 10° NE
ISS -2.9 18:48:32 10° SSW 18:51:31 30° SE 18:52:23 26° ESE
CZ-2C R/B 4.2 18:48:08 10° N 18:53:10 39° WNW 18:58:16 10° SW
Cosmos 921 Rocket 2.9 18:49:50 10° NNW 18:54:13 82° ENE 18:58:29 10° SSE
Cosmos 1486 Rocket 4.2 18:49:15 10° S 18:54:14 48° ESE 18:59:19 10° NNE
SL-4 R/B 2.3 18:54:58 10° WNW 18:58:18 47° SW 19:00:24 21° SSE
USA 307 4.0 18:54:25 10° W 18:58:26 42° NNW 19:02:30 10° NE
Cosmos 1908 Rocket 4.1 18:57:48 10° SSE 19:01:54 37° E 19:06:03 10° NNE
Meteor 2-9 Rocket 4.3 18:56:23 10° S 19:02:12 87° W 19:08:07 10° N
Nadezhda 3 Rocket 4.4 18:58:00 10° N 19:03:46 40° ENE 19:07:20 21° SE
Cosmos 1842 3.6 19:01:10 10° NNW 19:05:06 66° W 19:09:00 10° S
USA 281 3.7 19:00:12 10° NE 19:06:02 33° ESE 19:11:51 10° SSE
SJ-6B 2.9 19:04:20 20° SSE 19:07:02 61° ENE 19:11:08 10° N
Cosmos 1400 Rocket 3.4 19:07:16 27° SE 19:08:46 37° E 19:12:34 10° NNE
Cosmos 2221 Rocket 4.3 19:08:13 10° NNW 19:12:34 55° W 19:16:52 10° S
Cosmos 1378 Rocket 3.4 19:09:26 10° N 19:13:49 78° E 19:17:05 18° SSE
USA 306 4.4 19:11:27 10° W 19:15:19 34° NNW 19:19:12 10° NE
ATLAS CENTAUR R/B 3.2 19:12:26 10° N 19:15:59 21° NE 19:17:09 19° ENE
USA 308 4.3 19:13:36 10° W 19:17:30 35° NNW 19:21:18 11° NE
Cosmos 1674 3.6 19:15:10 10° NNE 19:18:00 30° ENE 19:18:00 30° ENE
Okean-O 4.2 19:19:33 10° SSW 19:23:36 34° W 19:27:40 10° NNW
CZ-3 Stage 3 4.3 19:01:08 10° SW 19:23:42 30° S 19:27:42 22° SE
Inspiration4 2.6 19:19:27 10° SW 19:23:42 75° SSE 19:25:24 36° ENE
COSMOS 2406 4.4 19:18:33 10° NW 19:23:57 42° WSW 19:29:19 10° S
Cosmos 1833 Rocket 4.3 19:22:32 10° NW 19:27:30 33° WSW 19:32:27 10° SSW
Cosmos 1674 Rocket 3.9 19:23:41 10° NNW 19:28:02 65° W 19:31:38 14° S
CZ-4B R/B 3.9 19:27:35 10° NNW 19:29:58 22° WNW 19:32:23 10° WSW
USA 186 2.7 19:30:09 33° SW 19:30:42 37° W 19:33:19 10° NNW
Cosmos 2074 Rocket 4.0 19:24:40 10° S 19:30:54 82° W 19:37:13 10° N
In-Cosmos 22 4.0 19:25:47 10° N 19:31:07 87° ENE 19:34:23 24° S
Lacrosse 4 Rocket 3.6 19:31:02 10° WSW 19:34:27 26° NW 19:37:54 10° N
USA 276 4.2 19:32:57 10° SW 19:34:01 19° SSW 19:34:01 19° SSW
SPOT 3 Rocket 4.2 19:36:02 34° ENE 19:36:17 34° ENE 19:40:53 10° N
Cosmos 2082 Rocket 2.7 19:33:12 10° NNW 19:38:48 57° WSW 19:42:45 19° S
Resurs 01 Rocket 2.0 19:40:22 44° ENE 19:40:22 44° ENE 19:44:22 10° N
Okean 2 4.4 19:39:45 10° NNW 19:43:39 44° W 19:46:18 18° SSW
Cosmos 1340 4.1 19:46:53 10° NNW 19:50:21 35° W 19:52:07 22° SW
Helios 1A Rocket 3.1 19:49:39 53° SSW 19:50:28 69° WSW 19:54:35 10° NNW
Cosmos 1782 Rocket 3.6 19:52:42 62° NE 19:52:42 62° NE 19:56:36 10° NNE
Ariane Rocket 2.9 19:53:08 56° SSE 19:54:16 86° ENE 19:59:22 10° NNW
Terra 4.1 19:56:16 12° NE 19:56:16 12° NE 19:56:58 10° NNE
IRS-1A Rocket 4.3 19:57:02 39° S 19:59:20 81° WSW 20:05:14 10° NNW
Cosmos 2278 Rocket 4.4 19:55:17 10° WSW 19:59:53 25° NW 20:04:32 10° N
Cosmos 2297 3.7 19:56:38 10° SSW 20:02:18 83° WNW 20:08:03 10° NNE
Resurs 1-3 4.2 20:06:22 47° SW 20:07:06 53° W 20:11:25 10° NNW
Cosmos 2369 Rocket 3.9 20:12:18 20° NE 20:12:18 20° NE 20:14:00 10° NE
Cosmos 1626 3.7 20:05:27 10° N 20:07:23 29° N 20:07:23 29° N
Cosmos 1346 Rocket 3.8 20:05:46 10° N 20:08:28 41° N 20:08:28 41° N
Cosmos 1503 Rocket 4.4 20:07:33 10° SSW 20:12:44 62° WNW 20:17:53 10° NNE
SPOT 1/Viking Rocket 3.8 20:15:41 58° NE 20:15:41 58° NE 20:20:10 10° N
Landsat 7 3.9 20:16:04 76° NW 20:16:04 76° NW 20:20:33 10° NNW
OBJECT-B 3.9 20:14:43 10° WSW 20:16:00 12° W 20:17:18 10° WNW
Cosmos 962 Rocket 4.3 20:16:03 52° S 20:17:43 89° E 20:23:56 10° N
IGS 5A 4.2 20:19:04 50° WNW 20:19:04 50° WNW 20:22:27 10° NNW
COSMOS 2455 2.7 20:12:54 10° NNW 20:18:58 81° WSW 20:19:34 72° S
Cosmos 1975 Rocket 3.8 20:18:40 10° NNW 20:22:05 51° NNW 20:22:05 51° NNW
Cosmos 1354 Rocket 4.5 20:19:10 10° SW 20:24:21 58° WNW 20:29:33 10° NNE
Cosmos 1943 Rocket 2.6 20:21:48 10° SW 20:27:16 59° WNW 20:32:50 10° NNE
ISS -0.7 20:25:01 10° W 20:25:27 13° W 20:25:27 13° W
Lacrosse 5 rocket 3.0 20:25:04 10° NW 20:28:07 31° N 20:28:07 31° N
SPOT 5 4.3 20:43:03 34° NNE 20:43:03 34° NNE 20:46:20 10° N
USA 281 3.9 20:44:23 10° NNE 20:50:43 51° WNW 20:57:00 10° SW
SL-8 Rocket 4.1 20:52:19 72° WNW 20:52:19 72° WNW 20:58:22 10° N
ATLAS CENTAUR R/B 3.2 20:50:38 10° NW 20:53:17 33° NW 20:53:17 33° NW
Resurs 01 Rocket 4.2 21:17:56 17° WNW 21:17:56 17° WNW 21:19:58 10° NW
SJ 16-02 4.4 21:27:03 11° N 21:27:03 11° N 21:27:10 10° N
Cosmos 2297 Rocket 4.4 21:26:09 10° N 21:28:14 16° NNE 21:28:14 16° NNE
Terra 4.2 21:35:09 20° NNW 21:35:09 20° NNW 21:36:36 10° NNW
Cosmos 2369 Rocket 4.1 21:54:02 26° NNW 21:54:02 26° NNW 21:57:42 10° N
CENTAUR R/B 4.4 22:53:55 25° NNE 22:53:55 25° NNE 22:56:52 10° NNE
